Location: Mount Kobau Star Party
(49.1167°N, 119.7333°W)
Time: 05:02:33
(UTC-07:00)

Vanguard 1 Rocket - Visible Passes

Search period start: 08 July 2025 00:00
Search period end: 18 July 2025 00:00
Orbit: 651 x 4216 km, 34.3° (Epoch: 07 July)

Date Brightness Start Highest point End Pass type
(mag) Time Alt. Az. Time Alt. Az. Time Alt. Az.
08 Jul 8.5 03:36:06 12° S 03:36:06 12° S 03:37:33 10° S visible
09 Jul 9.5 22:43:12 10° SSW 22:47:56 14° SSE 22:48:19 14° SSE visible
10 Jul 9.4 23:54:37 10° SW 23:58:13 17° SSW 23:58:13 17° SSW visible
11 Jul 9.2 22:41:21 10° SSW 22:48:17 19° S 22:50:42 17° SSE visible
12 Jul 9.8 01:07:33 10° SW 01:07:57 11° SW 01:07:57 11° SW visible
12 Jul 8.9 23:53:51 10° SW 00:00:15 23° S 00:00:15 23° S visible
13 Jul 9.2 22:40:00 10° SW 22:48:36 23° S 22:52:24 17° SE visible
14 Jul 9.4 01:07:22 10° WSW 01:09:37 16° SW 01:09:37 16° SW visible
14 Jul 9.7 21:26:18 10° SSW 21:35:59 22° SSE 21:42:24 10° ESE visible
14 Jul 8.7 23:53:15 10° SW 00:01:08 26° S 00:01:38 26° S visible
15 Jul 9.2 22:38:55 10° SW 22:48:53 28° S 22:53:32 16° SE visible
16 Jul 9.3 01:07:15 10° WSW 01:10:43 18° SW 01:10:43 18° SW visible
16 Jul 9.7 21:24:34 10° SW 21:36:14 27° SSE 21:43:26 10° ESE visible
16 Jul 8.7 23:52:46 10° WSW 00:01:23 28° S 00:02:31 27° S visible
17 Jul 9.2 22:38:00 10° SW 22:49:07 31° S 22:54:15 17° SE visible
